Flag for U.S.A. Weather past 2 weeks in Glendale, Arizona, U.S.A.

Now
65 °F

Passing clouds.


Feels Like: 65 °F
Forecast: 64 / 88 °F
Wind: 7 mph from East

Location: Phoenix-Deer Valley Municipal Airport

Current Time: Apr 28, 2015 at 4:31:15 AM

Latest Report: Apr 28, 2015 at 3:53 AM


Visibility: 10 mi

Pressure: 29.88 "Hg

Humidity: 44%

Dew point: 42 °F

Location of GlendaleLocation

Historic Weather in Glendale — Graph

°F

Glendale temperature yesterday

Maximum temperature yesterday: 83 °F (at 4:53 PM)
Minimum temperature yesterday: 52 °F (at 5:53 AM)
Average temperature yesterday: 69 °F

Past Weeks' High & Low Weather Summary

 TemperatureHumidityPressure
High89 °F (Apr 14, 3:53 PM)94% (Apr 26, 5:02 AM)30.00 "Hg (Apr 26, 5:02 AM)
Low51 °F (Apr 16, 4:53 AM)2% (Apr 15, 11:53 AM)29.64 "Hg (Apr 20, 5:53 PM)
Average70 °F27%29.82 "Hg
* Reported Apr 13 2:53 AM — Apr 28 2:53 AM, Glendale, Weather by CustomWeather, © 2015

Note: Actual official high and low records may vary slightly from our data, if they occured in-between our weather recording intervals... More about our weather records

Advertising

Glendale weather history for previous 24 hours

 ConditionsComfort  
Time TempWeatherWind HumidityBarometerVisibility
2:53 AM
Tue, Apr 28
63 °FClear.No wind54%29.88 "Hg10 mi
1:53 AM66 °FClear.5 mph45%29.87 "Hg10 mi
12:53 AM68 °FClear.5 mph42%29.87 "Hg10 mi
11:53 PM
Mon, Apr 27
70 °FClear.9 mph39%29.86 "Hg10 mi
10:53 PM70 °FPassing clouds.6 mph44%29.86 "Hg10 mi
9:53 PM73 °FClear.3 mph34%29.85 "Hg10 mi
8:53 PM75 °FClear.No wind31%29.84 "Hg10 mi
7:53 PM78 °FClear.3 mph25%29.81 "Hg10 mi
6:53 PM81 °FSunny.10 mph20%29.79 "Hg10 mi
5:53 PM82 °FSunny.5 mph18%29.78 "Hg10 mi
4:53 PM83 °FSunny.7 mph19%29.78 "Hg10 mi
3:53 PM82 °FSunny.12 mph19%29.78 "Hg10 mi
2:53 PM81 °FSunny.No wind19%29.80 "Hg10 mi
1:53 PM80 °FSunny.3 mph19%29.83 "Hg10 mi
12:53 PM79 °FSunny.8 mph20%29.84 "Hg10 mi
11:53 AM76 °FSunny.7 mph23%29.85 "Hg10 mi
10:53 AM73 °FSunny.5 mph27%29.87 "Hg10 mi
9:53 AM70 °FSunny.3 mph32%29.87 "Hg10 mi
8:53 AM65 °FSunny.No wind40%29.88 "Hg10 mi
7:53 AM61 °FSunny.No wind56%29.88 "Hg10 mi
6:53 AM56 °FSunny.3 mph67%29.87 "Hg10 mi
5:53 AM52 °FSunny.3 mph75%29.85 "Hg10 mi
4:53 AM54 °FClear.No wind67%29.83 "Hg10 mi
Weather by CustomWeather, © 2015

See weather overviewHow to use our weather pages